• In Portugal
  • List of Countries
  • For 7 days
  • Water Temperature
  • Satellite Maps
  • Weather Map
  • Weather Widgets
  • user-avatar
    Login

    Hourly Weather Herāt

    Today, 26 September, Tuesday

    Time Temperature Precipitation Wind Pressure Humidity
    00:00 +22°C° 0 mm 4 mps 680 mmHg 19%
    01:00 +21°C° 0 mm 4 mps 680 mmHg 20%
    02:00 +21°C° 0 mm 4 mps 680 mmHg 20%
    03:00 +21°C° 0 mm 4 mps 679 mmHg 21%
    04:00 +20°C° 0 mm 4 mps 679 mmHg 21%
    05:00 +21°C° 0 mm 4 mps 680 mmHg 21%
    06:00 +21°C° 0 mm 4 mps 680 mmHg 20%
    07:00 +22°C° 0 mm 4 mps 680 mmHg 20%
    08:00 +25°C° 0 mm 4 mps 681 mmHg 18%
    09:00 +27°C° 0 mm 5 mps 681 mmHg 16%
    10:00 +29°C° 0 mm 6 mps 681 mmHg 14%
    11:00 +30°C° 0 mm 6 mps 681 mmHg 14%
    12:00 +32°C° 0 mm 6 mps 681 mmHg 13%
    13:00 +33°C° 0 mm 7 mps 681 mmHg 13%
    14:00 +32°C° 0 mm 7 mps 681 mmHg 13%
    15:00 +32°C° 0 mm 7 mps 680 mmHg 13%
    16:00 +32°C° 0 mm 7 mps 680 mmHg 14%
    17:00 +29°C° 0 mm 7 mps 680 mmHg 15%
    18:00 +28°C° 0 mm 6 mps 680 mmHg 17%
    19:00 +26°C° 0 mm 5 mps 680 mmHg 18%
    20:00 +25°C° 0 mm 5 mps 680 mmHg 19%
    21:00 +25°C° 0 mm 5 mps 681 mmHg 20%
    22:00 +23°C° 0 mm 5 mps 681 mmHg 20%
    23:00 +22°C° 0 mm 5 mps 681 mmHg 22%

    Tomorrow, 27 September, Wednesday

    Time Temperature Precipitation Wind Pressure Humidity
    00:00 +22°C° 0 mm 5 mps 681 mmHg 23%
    01:00 +21°C° 0 mm 5 mps 681 mmHg 24%
    02:00 +21°C° 0 mm 5 mps 681 mmHg 27%
    03:00 +20°C° 0 mm 5 mps 681 mmHg 30%
    04:00 +19°C° 0 mm 4 mps 681 mmHg 33%
    05:00 +20°C° 0 mm 4 mps 681 mmHg 32%
    06:00 +20°C° 0 mm 4 mps 682 mmHg 32%
    07:00 +20°C° 0 mm 4 mps 682 mmHg 32%
    08:00 +22°C° 0 mm 5 mps 682 mmHg 28%
    09:00 +26°C° 0 mm 5 mps 683 mmHg 23%
    10:00 +28°C° 0 mm 5 mps 683 mmHg 19%
    11:00 +29°C° 0 mm 5 mps 683 mmHg 17%
    12:00 +30°C° 0 mm 6 mps 683 mmHg 15%
    13:00 +32°C° 0 mm 6 mps 682 mmHg 14%
    14:00 +32°C° 0 mm 6 mps 682 mmHg 14%
    15:00 +30°C° 0 mm 6 mps 682 mmHg 14%
    16:00 +30°C° 0 mm 6 mps 681 mmHg 14%
    17:00 +29°C° 0 mm 6 mps 681 mmHg 17%
    18:00 +27°C° 0 mm 5 mps 681 mmHg 19%
    19:00 +25°C° 0 mm 4 mps 681 mmHg 21%
    20:00 +25°C° 0 mm 4 mps 681 mmHg 22%
    21:00 +24°C° 0 mm 3 mps 681 mmHg 23%
    22:00 +22°C° 0 mm 3 mps 680 mmHg 24%
    23:00 +22°C° 0 mm 3 mps 680 mmHg 24%

    Day after tomorrow, 28 September, Thursday

    Time Temperature Precipitation Wind Pressure Humidity
    00:00 +23°C° 0 mm 2 mps 680 mmHg 24%
    01:00 +21°C° 0 mm 2 mps 680 mmHg 24%
    02:00 +21°C° 0 mm 2 mps 679 mmHg 24%
    03:00 +20°C° 0 mm 2 mps 679 mmHg 24%
    04:00 +20°C° 0 mm 2 mps 679 mmHg 24%
    05:00 +21°C° 0 mm 2 mps 679 mmHg 23%
    06:00 +21°C° 0 mm 2 mps 679 mmHg 22%
    07:00 +23°C° 0 mm 2 mps 680 mmHg 21%
    08:00 +25°C° 0 mm 2 mps 680 mmHg 18%
    09:00 +27°C° 0 mm 3 mps 681 mmHg 16%
    10:00 +29°C° 0 mm 3 mps 681 mmHg 13%
    11:00 +30°C° 0 mm 3 mps 681 mmHg 12%
    12:00 +32°C° 0 mm 4 mps 681 mmHg 12%
    13:00 +33°C° 0 mm 5 mps 681 mmHg 11%
    14:00 +33°C° 0 mm 5 mps 680 mmHg 12%
    15:00 +33°C° 0 mm 6 mps 680 mmHg 12%
    16:00 +32°C° 0 mm 6 mps 680 mmHg 13%
    17:00 +30°C° 0 mm 6 mps 680 mmHg 14%
    18:00 +28°C° 0 mm 6 mps 680 mmHg 16%
    19:00 +27°C° 0 mm 6 mps 680 mmHg 17%
    20:00 +26°C° 0 mm 6 mps 681 mmHg 19%
    21:00 +24°C° 0 mm 6 mps 681 mmHg 20%
    22:00 +23°C° 0 mm 6 mps 681 mmHg 22%
    23:00 +22°C° 0 mm 5 mps 681 mmHg 23%

    29 September, Friday

    Time Temperature Precipitation Wind Pressure Humidity
    00:00 +21°C° 0 mm 5 mps 681 mmHg 25%
    01:00 +20°C° 0 mm 4 mps 681 mmHg 26%
    02:00 +20°C° 0 mm 4 mps 680 mmHg 28%
    03:00 +19°C° 0 mm 4 mps 680 mmHg 29%
    04:00 +18°C° 0 mm 4 mps 680 mmHg 31%
    05:00 +18°C° 0 mm 4 mps 681 mmHg 31%
    06:00 +19°C° 0 mm 4 mps 681 mmHg 32%
    07:00 +19°C° 0 mm 4 mps 681 mmHg 32%
    08:00 +21°C° 0 mm 5 mps 682 mmHg 28%
    09:00 +23°C° 0 mm 5 mps 682 mmHg 25%
    10:00 +24°C° 0 mm 6 mps 683 mmHg 21%
    11:00 +26°C° 0 mm 6 mps 682 mmHg 20%
    12:00 +27°C° 0 mm 7 mps 682 mmHg 19%
    13:00 +28°C° 0 mm 7 mps 682 mmHg 18%
    14:00 +28°C° 0 mm 7 mps 682 mmHg 19%
    15:00 +27°C° 0 mm 8 mps 682 mmHg 20%
    16:00 +27°C° 0 mm 8 mps 681 mmHg 21%
    17:00 +26°C° 0 mm 8 mps 682 mmHg 24%
    18:00 +23°C° 0 mm 8 mps 682 mmHg 27%
    19:00 +22°C° 0 mm 8 mps 682 mmHg 31%
    20:00 +21°C° 0 mm 7 mps 682 mmHg 32%
    21:00 +20°C° 0 mm 7 mps 683 mmHg 34%
    22:00 +18°C° 0 mm 7 mps 683 mmHg 36%
    23:00 +19°C° 0 mm 6 mps 683 mmHg 37%

    30 September, Saturday

    Time Temperature Precipitation Wind Pressure Humidity
    00:00 +17°C° 0 mm 5 mps 682 mmHg 38%
    01:00 +17°C° 0 mm 5 mps 682 mmHg 39%
    02:00 +17°C° 0 mm 4 mps 682 mmHg 40%
    03:00 +17°C° 0 mm 4 mps 682 mmHg 41%
    04:00 +15°C° 0 mm 4 mps 682 mmHg 41%
    05:00 +17°C° 0 mm 4 mps 682 mmHg 40%
    06:00 +17°C° 0 mm 4 mps 683 mmHg 39%
    07:00 +17°C° 0 mm 4 mps 683 mmHg 37%
    08:00 +20°C° 0 mm 4 mps 683 mmHg 32%
    09:00 +22°C° 0 mm 4 mps 683 mmHg 28%
    10:00 +25°C° 0 mm 5 mps 684 mmHg 23%
    11:00 +26°C° 0 mm 5 mps 683 mmHg 21%
    12:00 +27°C° 0 mm 5 mps 683 mmHg 19%
    13:00 +28°C° 0 mm 5 mps 683 mmHg 18%
    14:00 +28°C° 0 mm 6 mps 682 mmHg 18%
    15:00 +28°C° 0 mm 6 mps 682 mmHg 18%
    16:00 +27°C° 0 mm 6 mps 682 mmHg 18%
    17:00 +26°C° 0 mm 6 mps 682 mmHg 20%
    18:00 +23°C° 0 mm 5 mps 682 mmHg 22%
    19:00 +22°C° 0 mm 5 mps 682 mmHg 24%
    20:00 +21°C° 0 mm 4 mps 682 mmHg 25%
    21:00 +20°C° 0 mm 3 mps 682 mmHg 26%
    22:00 +20°C° 0 mm 3 mps 682 mmHg 27%
    23:00 +19°C° 0 mm 3 mps 682 mmHg 28%

    1 October, Sunday

    Time Temperature Precipitation Wind Pressure Humidity
    00:00 +19°C° 0 mm 3 mps 682 mmHg 28%
    01:00 +19°C° 0 mm 2 mps 681 mmHg 28%
    02:00 +18°C° 0 mm 2 mps 681 mmHg 29%
    03:00 +18°C° 0 mm 2 mps 681 mmHg 29%
    04:00 +18°C° 0 mm 2 mps 681 mmHg 29%
    05:00 +19°C° 0 mm 2 mps 681 mmHg 28%
    06:00 +19°C° 0 mm 2 mps 681 mmHg 27%
    07:00 +20°C° 0 mm 2 mps 682 mmHg 25%
    08:00 +23°C° 0 mm 2 mps 682 mmHg 21%
    09:00 +26°C° 0 mm 2 mps 682 mmHg 18%
    10:00 +28°C° 0 mm 2 mps 682 mmHg 14%
    11:00 +29°C° 0 mm 2 mps 682 mmHg 13%
    12:00 +31°C° 0 mm 2 mps 682 mmHg 11%
    13:00 +33°C° 0 mm 3 mps 681 mmHg 10%
    14:00 +33°C° 0 mm 3 mps 681 mmHg 10%
    15:00 +33°C° 0 mm 3 mps 681 mmHg 10%
    16:00 +33°C° 0 mm 3 mps 680 mmHg 10%
    17:00 +30°C° 0 mm 3 mps 680 mmHg 12%
    18:00 +29°C° 0 mm 2 mps 680 mmHg 13%
    19:00 +27°C° 0 mm 1 mps 680 mmHg 15%
    20:00 +26°C° 0 mm 1 mps 680 mmHg 15%
    21:00 +25°C° 0 mm 1 mps 680 mmHg 15%
    22:00 +25°C° 0 mm 1 mps 679 mmHg 16%
    23:00 +24°C° 0 mm 1 mps 679 mmHg 16%
    Show more